Tracking 33199 objects as of 16-Feb-2026
HD Live streaming from Space Station
objects crossing your sky now

STARLINK-5550

Track STARLINK-5550 now!
10-day predictions
STARLINK-5550 is classified as:


NORAD ID: 56361
Int'l Code: 2023-058AW
Perigee: 569.4 km
Apogee: 570.9 km
Inclination: 97.6 °
Period: 95.9 minutes
Semi major axis: 6941 km
RCS: Unknown
Launch date: April 27, 2023
Source: United States (US)
Launch site: AIR FORCE WESTERN TEST RANGE (AFWTR)
Your satellite tracking list
Your tracking list is empty




NASA's NSSDC Master Catalog

Two Line Element Set (TLE):
1 56361U 23058AW  26047.02059183  .00000497  00000-0  43228-4 0  9999
2 56361  97.6071  49.0610 0001081 124.1383 235.9944 15.01264042154882
Source of the keplerian elements: AFSPC